[[{"header":{"parameterUnit":"m.s-1","parameterCategory":1,"la1":30.2991,"la2":30.254,"lo1":-89.0895,"lo2":-89.0444,"dy":0.0017,"dx":0.0017,"nx":28,"ny":28,"refTime":"2024-08-15T09:00:00:Z","depth":0,"parameterNumber":2,"parameterNumberName":"U-component_of_WINDS"},"data":[0,0,0,0,0,0,0,0,0,0,0,0,0,0,0,0,0,0,0,0,0,0,0,0,0,0,0,0,0,0,0,0,0,0,0,0,0,0,0,0,0,0,0,0,0,0,0,0,0,0,0,0,0,0,0,0,0,0,-2.0919,-2.0919,0,-2.0949,-2.095,-2.095,-2.0911,-2.0909,-2.0908,-2.0907,-2.0939,-2.0941,-2.0943,0,0,0,0,0,0,0,0,0,0,0,0,0,-2.0827,-2.0829,-2.0919,-2.0919,-2.092,-2.0949,-2.095,-2.095,-2.0911,-2.0909,-2.0908,-2.0906,-2.0938,-2.0941,-2.0943,0,0,0,0,0,0,0,0,0,0,0,0,0,-2.0863,-2.083,-2.0919,-2.0904,-2.0903,-2.0949,-2.095,-2.095,-2.0911,-2.0909,-2.0907,-2.0905,-2.0937,-2.094,-2.0944,-2.1007,0,0,-2.0954,-2.0955,0,0,0,0,0,0,0,0,-2.0861,-2.0867,-2.0905,-2.0905,-2.0904,-2.0924,-2.0929,-2.0969,-2.0912,-2.0908,-2.0907,-2.0904,-2.0936,-2.0939,-2.0949,-2.1008,-2.101,-2.0954,-2.0956,-2.0957,-2.0958,0,0,0,0,0,0,0,-2.0859,-2.0865,-2.0931,-2.0906,-2.0905,-2.0896,-2.0898,-2.0937,-2.0934,-2.0908,-2.0905,-2.091,-2.0935,-2.0946,-2.095,-2.101,-2.0954,-2.0957,-2.0959,-2.096,-2.1123,-2.1125,0,0,0,0,0,0,-2.0858,-2.0863,-2.093,-2.0932,-2.0877,-2.0899,-2.0902,-2.092,-2.0933,-2.0933,-2.0911,-2.0908,-2.0942,-2.0946,-2.0951,-2.1026,-2.0957,-2.096,-2.0962,-2.112,-2.1123,-2.1126,0,0,0,0,0,0,-2.0856,-2.0864,-2.0929,-2.0897,-2.0904,-2.0903,-2.0923,-2.0921,-2.0933,-2.0935,-2.0935,-2.0924,-2.094,-2.0946,-2.0993,-2.1026,-2.0962,-2.0965,-2.1118,-2.1121,-2.1125,-2.1176,0,0,0,0,0,0,-2.0854,-2.0864,-2.0888,-2.0898,-2.0906,-2.0971,-2.0925,-2.0924,-2.0939,-2.0934,-2.0947,-2.0947,-2.0939,-2.0989,-2.0996,-2.103,-2.0967,-2.1115,-2.1119,-2.1123,-2.1172,-2.1181,-2.1189,0,0,0,0,0,-2.0851,-2.0901,-2.0889,-2.0897,-2.0936,-2.0973,-2.0977,-2.0967,-2.0942,-2.0966,-2.0967,-2.0946,-2.1022,-2.0994,-2.1002,-2.1037,-2.1112,-2.1118,-2.1123,-2.1168,-2.1179,-2.1189,0,0,0,0,0,0,-2.0896,-2.0902,-2.0889,-2.0944,-2.0958,-2.0966,-2.0996,-2.098,-2.1001,-2.0996,-2.0983,-2.0986,-2.1036,-2.1041,-2.101,-2.1099,-2.1063,-2.107,-2.1094,-2.1105,-2.1113,-2.1111,-2.097,0,0,0,0,0,-2.0912,-2.0941,-2.0945,-2.0994,-2.1001,-2.0998,-2.1013,-2.1004,-2.1018,-2.1023,-2.1028,-2.1043,-2.1069,-2.1087,-2.1112,-2.1172,-2.1174,-2.12,-2.1209,-2.1216,-2.1223,-2.1255,-2.1267,-2.1143,-2.1143,-2.1143,0,0,-2.0946,-2.0953,-2.0972,-2.1003,-2.1012,-2.1043,-2.1003,-2.1036,-2.1059,-2.1029,-2.1073,-2.1077,-2.1093,-2.1146,-2.117,-2.1152,-2.1258,-2.1223,-2.1229,-2.1231,-2.1262,-2.1273,-2.1284,-2.1147,-2.1146,-2.1146,0,0,-2.1023,-2.1032,-2.1073,-2.1084,-2.1099,-2.1096,-2.1106,-2.1116,-2.1118,-2.1162,-2.114,-2.1167,-2.1213,-2.1225,-2.1237,-2.1319,-2.1301,-2.1328,-2.1374,-2.1405,-2.1415,-2.1423,-2.1453,-2.1463,-2.1334,-2.1334,-2.1334,0,-2.1064,-2.1109,-2.1096,-2.1132,-2.1146,-2.112,-2.1162,-2.1172,-2.1195,-2.1205,-2.1185,-2.1242,-2.1251,-2.1307,-2.1327,-2.1338,-2.1349,-2.1326,-2.1414,-2.1423,-2.1431,-2.1459,-2.147,-2.1337,-2.1337,-2.1337,-2.1336,0,-2.1158,-2.1189,-2.1221,-2.1243,-2.126,-2.1299,-2.1293,-2.1312,-2.1302,-2.1301,-2.1347,-2.1356,-2.1382,-2.1395,-2.1385,-2.145,-2.1438,-2.1416,-2.138,-2.1446,-2.1472,-2.1482,-2.1342,-2.1341,-2.134,-2.1339,0,0,-2.1264,-2.1279,-2.1291,-2.1301,-2.1315,-2.1339,-2.1377,-2.1402,-2.1419,-2.1436,-2.1467,-2.1507,-2.1487,-2.15,-2.1492,-2.1519,-2.1584,-2.1494,-2.1494,-2.151,-2.1656,-2.1672,-2.1685,-2.1572,-2.1574,-2.1576,-2.1655,0,-2.1342,-2.1406,-2.1396,-2.1459,-2.1487,-2.1463,-2.1496,-2.1508,-2.1509,-2.1534,-2.1534,-2.1563,-2.1534,-2.1542,-2.1569,-2.157,-2.1613,-2.1565,-2.1601,-2.1602,-2.1598,-2.1698,-2.1716,-2.179,-2.1665,-2.1666,-2.1668,0,-2.1441,-2.1461,-2.1526,-2.1536,-2.1548,-2.1577,-2.1599,-2.1623,-2.1637,-2.1636,-2.1651,-2.1638,-2.1675,-2.1638,-2.169,-2.1657,-2.1672,-2.1675,-2.1677,-2.168,-2.1639,-2.1704,-2.1813,-2.1824,-2.1683,-2.1682,-2.1681,0,-2.1512,-2.1555,-2.16,-2.1609,-2.1622,-2.1643,-2.1649,-2.1661,-2.1677,-2.1697,-2.1707,-2.1731,-2.1744,-2.1763,-2.1757,-2.173,-2.181,-2.1772,-2.181,-2.181,-2.1827,-2.1826,-2.1941,-2.1837,-2.1837,-2.1837,-2.1836,0,-2.16,-2.1641,-2.1632,-2.1659,-2.1704,-2.1692,-2.1737,-2.1741,-2.1752,-2.1779,-2.176,-2.1787,-2.1776,-2.1802,-2.1797,-2.1841,-2.1847,-2.1847,-2.1845,-2.1849,-2.1849,-2.1858,-2.1852,-2.184,-2.1839,-2.1838,-2.1838,0,-2.1687,-2.1683,-2.173,-2.1738,-2.1741,-2.1774,-2.1781,-2.1807,-2.1806,-2.1841,-2.1849,-2.1847,-2.1877,-2.1872,-2.1905,-2.1902,-2.1956,-2.1948,-2.1951,-2.195,-2.1987,-2.1984,-2.2111,-2.2128,-2.2014,-2.2015,-2.2016,0,-2.1743,-2.1774,-2.1785,-2.1802,-2.181,-2.1838,-2.1854,-2.1844,-2.1862,-2.188,-2.1904,-2.1931,-2.1953,-2.2001,-2.2004,-2.2029,-2.2021,-2.2064,-2.2025,-2.2027,-2.2022,-2.202,-2.2023,-2.2072,-2.2073,-2.2074,-2.2075,0,-2.1844,-2.184,-2.1863,-2.1887,-2.1906,-2.1924,-2.194,-2.1955,-2.1946,-2.1967,-2.1997,-2.2014,-2.2047,-2.2075,-2.2098,-2.2105,-2.2089,-2.2087,-2.2097,-2.2101,-2.2102,-2.2102,-2.1973,-2.2084,-2.2083,-2.2083,-2.2082,-2.2082,-2.1917,-2.1943,-2.1955,-2.1982,-2.1993,-2.2008,-2.2033,-2.2035,-2.206,-2.2086,-2.2078,-2.2112,-2.2125,-2.2155,-2.2165,-2.2191,-2.2175,-2.219,-2.2194,-2.2197,-2.2202,-2.2098,-2.2195,-2.2195,-2.2195,-2.2195,-2.2195,0,-2.2016,-2.2023,-2.2048,-2.207,-2.2092,-2.2074,-2.2091,-2.211,-2.214,-2.2153,-2.2175,-2.2209,-2.2236,-2.2241,-2.2266,-2.2287,-2.228,-2.2294,-2.2292,-2.2294,-2.2215,-2.2203,-2.2299,-2.2299,-2.2299,-2.2299,-2.2299,-2.2299,-2.2071,-2.2114,-2.2112,-2.216,-2.2166,-2.2199,-2.221,-2.2224,-2.2235,-2.2274,-2.2296,-2.2299,-2.2309,-2.2335,-2.2359,-2.2359,-2.237,-2.2387,-2.2384,-2.231,-2.23,-2.229,-2.2279,-2.2389,-2.2389,-2.2462,-2.2462,-2.2463]},{"header":{"parameterUnit":"m.s-1","parameterCategory":1,"la1":30.2991,"la2":30.254,"lo1":-89.0895,"lo2":-89.0444,"dy":0.0017,"dx":0.0017,"nx":28,"ny":28,"refTime":"2024-08-15T09:00:00:Z","depth":0,"parameterNumber":3,"parameterNumberName":"V-component_of_WINDS"},"data":[0,0,0,0,0,0,0,0,0,0,0,0,0,0,0,0,0,0,0,0,0,0,0,0,0,0,0,0,0,0,0,0,0,0,0,0,0,0,0,0,0,0,0,0,0,0,0,0,0,0,0,0,0,0,0,0,0,0,3.8332,3.8332,0,3.8371,3.8372,3.8372,3.8339,3.8338,3.8336,3.8335,3.8373,3.8375,3.8377,0,0,0,0,0,0,0,0,0,0,0,0,0,3.8225,3.8227,3.8332,3.8332,3.8333,3.8371,3.8372,3.8372,3.8339,3.8338,3.8336,3.8334,3.8372,3.8375,3.8377,0,0,0,0,0,0,0,0,0,0,0,0,0,3.8268,3.8227,3.8331,3.8321,3.832,3.8371,3.8372,3.8372,3.834,3.8337,3.8335,3.8333,3.8371,3.8374,3.8378,3.844,0,0,3.8388,3.839,0,0,0,0,0,0,0,0,3.8266,3.8272,3.8322,3.8322,3.8321,3.8348,3.8348,3.8395,3.834,3.8332,3.8335,3.8332,3.8366,3.837,3.8382,3.8442,3.8443,3.8389,3.8391,3.8392,3.8393,0,0,0,0,0,0,0,3.8263,3.827,3.8347,3.8323,3.8322,3.8313,3.8317,3.8356,3.836,3.8333,3.833,3.8336,3.8365,3.8378,3.8382,3.8444,3.8388,3.8391,3.8394,3.8395,3.8556,3.8558,0,0,0,0,0,0,3.8261,3.8268,3.8346,3.8348,3.8288,3.8317,3.8321,3.8341,3.836,3.836,3.8337,3.8334,3.8373,3.8378,3.8383,3.8456,3.8392,3.8395,3.8397,3.8554,3.8556,3.8559,0,0,0,0,0,0,3.8259,3.8269,3.8344,3.8308,3.8317,3.8321,3.8344,3.8343,3.8356,3.8363,3.8363,3.835,3.8372,3.8379,3.8426,3.8457,3.8397,3.84,3.8551,3.8555,3.8558,3.8603,0,0,0,0,0,0,3.8256,3.8268,3.8292,3.8308,3.8319,3.8387,3.8346,3.8346,3.8363,3.8358,3.8375,3.8376,3.8371,3.8421,3.8429,3.8461,3.8403,3.8548,3.8553,3.8557,3.8599,3.8608,3.8615,0,0,0,0,0,3.8252,3.8303,3.8294,3.8303,3.8349,3.8389,3.8395,3.8389,3.8365,3.8389,3.8394,3.8375,3.8453,3.8426,3.8435,3.8468,3.8546,3.8551,3.8556,3.8595,3.8606,3.8615,0,0,0,0,0,0,3.829,3.8305,3.8295,3.8353,3.837,3.8384,3.8414,3.8401,3.8424,3.8419,3.841,3.8414,3.8464,3.8471,3.8441,3.8529,3.8495,3.8503,3.8522,3.8532,3.854,3.8537,3.8405,0,0,0,0,0,3.8305,3.8337,3.8349,3.8398,3.8408,3.8409,3.8427,3.8421,3.8438,3.8444,3.8452,3.8469,3.8497,3.8515,3.8541,3.86,3.8602,3.8627,3.8635,3.8642,3.8648,3.8678,3.8688,3.8575,3.8575,3.8575,0,0,3.8337,3.8349,3.8369,3.8406,3.8419,3.8451,3.8416,3.8451,3.8475,3.845,3.8495,3.8501,3.8519,3.8572,3.8596,3.8579,3.868,3.8648,3.8654,3.8656,3.8684,3.8695,3.8704,3.8579,3.8578,3.8577,0,0,3.841,3.8423,3.8465,3.8479,3.8499,3.85,3.851,3.8526,3.8529,3.8575,3.8556,3.8583,3.8632,3.8645,3.8658,3.8736,3.8719,3.8745,3.8787,3.8816,3.8825,3.8833,3.8859,3.8869,3.8751,3.8751,3.8751,0,3.8446,3.8494,3.8489,3.8525,3.8541,3.8521,3.8563,3.8577,3.8604,3.8615,3.8596,3.8656,3.8667,3.8722,3.8741,3.8753,3.8763,3.8742,3.8824,3.8832,3.8839,3.8864,3.8874,3.8754,3.8753,3.8753,3.8753,0,3.8537,3.8571,3.8602,3.8629,3.8649,3.8689,3.8688,3.8708,3.8701,3.8703,3.8749,3.8761,3.8789,3.8802,3.8795,3.8856,3.8845,3.8826,3.8792,3.8853,3.8876,3.8886,3.8758,3.8757,3.8756,3.8755,0,0,3.8633,3.8657,3.8669,3.868,3.8701,3.8726,3.8765,3.8792,3.8809,3.8829,3.8859,3.8901,3.8883,3.8898,3.8892,3.8919,3.8978,3.8896,3.8896,3.8909,3.9044,3.9057,3.9068,3.8968,3.8969,3.8971,3.9041,0,3.8706,3.8773,3.8768,3.8831,3.8861,3.8842,3.8875,3.8891,3.8894,3.8919,3.8923,3.8952,3.8927,3.8936,3.8961,3.8965,3.9004,3.896,3.8994,3.8995,3.8988,3.908,3.9094,3.916,3.9051,3.9052,3.9053,0,3.8799,3.8822,3.8888,3.8903,3.8915,3.8945,3.897,3.8995,3.9012,3.9012,3.9029,3.9019,3.9056,3.9023,3.9072,3.9043,3.9056,3.9061,3.9063,3.9064,3.9027,3.9082,3.9181,3.919,3.9068,3.9067,3.9066,0,3.8861,3.8908,3.8953,3.8964,3.8984,3.9004,3.9013,3.9028,3.9045,3.9067,3.9077,3.9103,3.9116,3.9135,3.9132,3.9108,3.9182,3.9149,3.9182,3.9182,3.9197,3.9196,3.9298,3.9209,3.9209,3.9209,3.9209,0,3.8941,3.8981,3.8981,3.9008,3.9053,3.9047,3.9091,3.9097,3.9111,3.9138,3.9124,3.915,3.9144,3.917,3.9167,3.9208,3.9215,3.9215,3.9214,3.9215,3.9215,3.9223,3.9217,3.9211,3.9211,3.921,3.921,0,3.9016,3.9018,3.9066,3.908,3.9085,3.9117,3.9129,3.9154,3.9156,3.9191,3.9199,3.9203,3.9232,3.9231,3.9264,3.9262,3.9311,3.9306,3.9306,3.9304,3.9336,3.9333,3.9445,3.9459,3.9364,3.9364,3.9365,0,3.9067,3.9097,3.9115,3.9133,3.9143,3.9172,3.9189,3.9185,3.9203,3.9225,3.9247,3.9275,3.9297,3.9345,3.9349,3.9374,3.9367,3.9405,3.9371,3.9371,3.9366,3.9363,3.9365,3.9411,3.9412,3.9413,3.9414,0,3.9155,3.9154,3.918,3.9206,3.9227,3.9247,3.9265,3.928,3.9278,3.9299,3.9329,3.9346,3.938,3.9407,3.9431,3.9439,3.9426,3.9425,3.9434,3.9435,3.9433,3.9432,3.9322,3.9422,3.9421,3.9421,3.942,3.942,3.9218,3.9244,3.926,3.9289,3.9302,3.932,3.9344,3.935,3.9375,3.9402,3.9399,3.9432,3.9447,3.9478,3.9488,3.9513,3.9499,3.9512,3.9515,3.9518,3.9521,3.9431,3.9518,3.9517,3.9517,3.9517,3.9517,0,3.9304,3.9313,3.934,3.9366,3.9388,3.9376,3.9395,3.9414,3.9444,3.946,3.9482,3.9516,3.9542,3.9549,3.9575,3.9593,3.9588,3.96,3.9597,3.9599,3.9532,3.9522,3.9604,3.9604,3.9604,3.9604,3.9604,3.9604,3.9351,3.9393,3.9394,3.9443,3.9452,3.9485,3.9497,3.9513,3.9525,3.9564,3.9586,3.9591,3.9603,3.9629,3.9652,3.9653,3.9662,3.9677,3.9675,3.9613,3.9604,3.9595,3.9585,3.9679,3.9679,3.974,3.974,3.9741]}]]